Regional Weather Roundup
Issued by NWS Sterling, VA

Home | Current Version | Previous Version | Text Only | Print | Product List | Glossary On
Versions: 1 2 3 4 5 6 7 8 9 10 11 12 13 14 15 16 17 18 19 20 21 22 23 24 25 26 27
000
ASUS41 KLWX 242110
RWRLWX

REGIONAL WEATHER ROUNDUP
NATIONAL WEATHER SERVICE BALTIMORE MD/WASHINGTON DC
500 PM EDT FRI MAR 24 2017

Note: "FAIR" indicates few or no clouds below 12,000 feet
with no significant weather and/or obstructions to visibility.
 TC=TEMPERATURE CELSIUS

 * =Non NWS site. Station does not report precipitation (e.g. rain,
    snow, etc.), thunder, or fog.

DCZ001-MDZ009-015-VAZ040>042-051-053>054-242200-
WASHINGTON METRO

CITY           SKY/WX    TMP DP  RH WIND       PRES   REMARKS
WASHINGTON NAT CLOUDY    61  36  39 S21       30.22F
DULLES         CLOUDY    60  36  40 S12       30.21F
ANDREWS AFB    MOSUNNY   60  35  38 S18       30.21F
FT BELVOIR     MOSUNNY   61  34  36 S12       30.22F
QUANTICO       CLOUDY    60  39  45 SW15G21   30.25F
COLLEGE PARK*  CLOUDY    59  34  38 S5        30.21F
LEESBURG*      CLOUDY    61  41  48 S16       30.21F
MANASSAS*      CLOUDY    62  37  39 S14G20    30.22F

$$

MDZ006>007-011-014-242200-
BALTIMORE METRO

CITY           SKY/WX    TMP DP  RH WIND       PRES   REMARKS
BWI AIRPORT    CLOUDY    59  34  39 SW13      30.19F
MD SCIENCE CTR   N/A     60  32  34 MISG      30.20F
MARTIN STATE   PTSUNNY   55  39  54 SE12      30.22F
ANNAPOLIS      MOSUNNY   60  37  42 S10       30.21F
FORT MEADE*    CLOUDY    59  32  36 SW12      30.22F

$$

MDZ012-015-019>023-242200-
MARYLAND EASTERN SHORE

CITY           SKY/WX    TMP DP  RH WIND       PRES   REMARKS
OCEAN CITY     CLOUDY    51  41  68 S10G21    30.30F
SALISBURY      CLOUDY    62  36  37 S18G26    30.26F
BAY BRIDGE AP* CLOUDY    59  36  41 S10G16    30.22F
CAMBRIDGE*     SUNNY     59  37  44 S13       30.25F
EASTON*        CLOUDY    59  32  36 SW14G20   30.26F

$$

MDZ017>025-242200-
SOUTHERN MARYLAND

CITY           SKY/WX    TMP DP  RH WIND       PRES   REMARKS
PATUXENT RIVER CLOUDY    65  40  39 SW17G25   30.24F
ST INIGOES     SUNNY     65  38  36 SW12      30.25F
LEONARDTOWN*   SUNNY     64  34  32 SW15G21   30.25F

$$

MDZ003>005-242200-
NORTH CENTRAL MARYLAND

CITY           SKY/WX    TMP DP  RH WIND       PRES   REMARKS
FREDERICK*     SUNNY     61  43  51 SW12      30.21
HAGERSTOWN APT CLOUDY    60  41  49 S14       30.14F
WESTMINSTER*   CLOUDY    61  39  44 SW13      30.16F

$$

MDZ501>502-242200-
WESTERN MARYLAND

CITY           SKY/WX    TMP DP  RH WIND       PRES   REMARKS
OAKLAND*       CLOUDY    64  46  52 W9G18     30.17F
CUMBERLAND*    CLOUDY    72  46  40 CALM      30.12F

$$

VAZ025>031-242200-
SHENANDOAH VALLEY

CITY           SKY/WX    TMP DP  RH WIND       PRES   REMARKS
WINCHESTER*    CLOUDY    63  41  45 S9        30.16F
FRONT ROYAL*     N/A    N/A N/A N/A MISG        N/A
LURAY*         CLOUDY    68  43  40 SW17      30.18F
NEW MARKET*    CLOUDY    69  40  34 SW12G20   30.18S
STAUNTON*      CLOUDY    67  40  36 S13G20    30.23S
WAYNESBORO*    CLOUDY    68  41  37 S10G18    30.22F

$$

WVZ021-048>050-054>055-242200-
EASTERN WEST VIRGINIA PANHANDLE

CITY           SKY/WX    TMP DP  RH WIND       PRES   REMARKS
MARTINSBURG    CLOUDY    62  41  46 S9        30.14F
PETERSBURG*    MOSUNNY   78  52  40 W15G21    30.12F

$$

VAZ036>039-050-242200-
CENTRAL FOOTHILLS

CITY           SKY/WX    TMP DP  RH WIND       PRES   REMARKS
CHARLOTTESVILL SUNNY     69  38  32 SW14      30.23F
CULPEPER*      SUNNY     64  38  39 S10G21    30.23F
ORANGE*        SUNNY     64  37  36 S10G17    30.25F
GORDONSVILLE*  MOSUNNY   67  41  38 SW13      30.23F
WARRENTON*     CLOUDY    64  31  29 S13G21    30.22F

$$

VAZ055>057-242200-
NORTH AND CENTRAL PIEDMONT

CITY           SKY/WX    TMP DP  RH WIND       PRES   REMARKS
FREDERICKSBRG* CLOUDY    64  40  40 SW10G21   30.24F
STAFFORD*      CLOUDY    62  36  38 S15       30.28F

$$

NCZ024-NYZ072-PAZ021-071-VAZ022-071-242200-
OTHER REGIONAL OBSERVATIONS

CITY           SKY/WX    TMP DP  RH WIND       PRES   REMARKS
NEW YORK CITY  CLOUDY    54  31  41 VRB3      30.16F
PHILADELPHIA   CLOUDY    58  33  39 SW20      30.19F
PITTSBURGH     PTSUNNY   74  50  42 SW17G23   30.06F
ROANOKE        MOSUNNY   70  42  36 SE7       30.28F
RICHMOND       CLOUDY    70  44  39 SW20G26   30.27F
RALEIGH        MOSUNNY   70  46  42 S15G22    30.36F

$$

ANZ530>537-242200-
MARINE OBSERVATIONS

STATION/POSITION TIME  TEMP    WIND        PRES
                       AIR SEA DIR/SP/G
                 (UTC) (F)     (DEG/KT/KT) (MB)
THOMAS PT LIGHT  2100   48 44  170/ 19/ 20   N/A
BALT KEY BRIDGE  2048   58     190/ 10/ 12 1022.6F
COVE POINT       2048   47     170/ 14/ 16 1024.9F
LEWISETTA        2048   65 47  240/ 18/ 22 1024.2F
SOLOMONS ISLAND  2042   61 45  230/ 10/ 15   N/A
PINEY POINT      2048          250/  7/ 12   N/A

$$





USA.gov is the U.S. government's official web portal to all federal, state and local government web resources and services.